SPACEBEE-47 (47427 NORAD) Tracking and Keplerian Element Data

This shows tracking and keplerian element data for the satellite.

Feedback or suggestion? Click here.




ElementValue
Catalog47427
NameSPACEBEE-47
Epoch Orbit1259
Epoch Day105.82708422
Epoch Year2021
RAAN168.3276
Inclination97.4962
Eccentricity0.0013182
Argument of Perigee323.7272
Mean Anonmoly36.3065
Mean Motion15.14272977
Decay Rate2.389E-05
L11 47427U 21006Q 21105.82708422 .00002389 00000-0 13396-3 0 9992
L22 47427 97.4962 168.3276 0013182 323.7272 36.3065 15.14272977 12592

Live tracking and technical data element details for SPACEBEE-47 (NORAD 47427). SPACEBEE-47 can be tracked NOW for your location showing map with azimuth and elevation plus other details from your city location.

Track the satellite on the map from your city or location and see movement details for azimuth, elevation, latitude, longitude, range, height, and movement on the map or in text.







IsCatalogInMostPopularTable: catalog: 47427, numindb: 14
Update: records affected: 1



GetName: 47427 SPACEBEE-47

Hit Count: updated at: Fri, 16 Apr 2021 10:28:25 GMT